RH
78 52 51 61 76 89 91 100 47 73 95 100 99 98 96 97 99 100 99 98 77 80 87 88 92 92 87 67 74 93 83 68 74 97 99 88 76 82 95 72 58 55 46 36
84 58 55 70 77 93 96 96 63 95 100 99 99 98 98 98 99 98 98 92 83 53 79 78 97 96 70 68 75 92 80 70 73 79 89 96 91 94 90 72 56 52 46 40
90 60 56 76 78 94 99 82 96 98 100 100 99 98 98 99 99 100 99 98 100 63 66 62 75 98 64 78 77 72 76 68 55 56 55 66 80 82 77 76 66 54 50 44
90 59 59 79 79 95 100 86 83 92 99 93 99 99 98 99 99 99 99 99 93 77 64 89 98 99 73 78 71 82 83 69 67 62 63 58 55 53 56 74 66 59 51 54
94 67 54 84 80 93 100 99 50 83 87 79 93 99 98 99 100 99 99 99 100 86 68 94 86 88 70 68 78 79 84 76 68 63 61 63 63 58 57 57 66 64 57 54
94 67 64 86 83 76 100 99 48 67 72 75 94 100 100 100 100 99 100 93 99 99 76 61 72 59 79 83 74 75 94 86 73 62 63 59 65 62 60 57 57 57 57 49
96 72 65 86 80 71 99 96 70 36 41 69 99 99 100 100 99 100 99 99 86 83 82 65 87 100 98 97 92 91 97 86 72 66 62 84 56 50 47 49 49 53 54 56
83 76 69 82 74 69 98 95 84 38 49 86 94 100 100 100 100 100 95 90 82 97 98 87 100 100 100 100 100 99 94 90 91 62 57 53 47 42 48 48 40 37 48 54
98 72 71 84 72 67 98 91 93 29 48 88 58 60 100 100 100 100 96 98 100 95 100 98 96 99 100 99 100 100 97 99 97 78 60 52 40 40 35 40 42 36 40 51
99 74 74 82 70 67 96 92 94 27 45 82 46 62 82 95 100 100 99 99 100 100 100 98 95 100 92 96 98 99 100 87 94 91 96 40 40 39 34 44 40 37 33 40
98 91 77 84 72 66 88 99 91 27 44 65 56 41 55 72 98 100 99 100 99 100 99 100 100 99 95 85 90 96 90 79 91 98 80 56 48 43 41 38 38 41 43 48
100 85 75 86 73 67 66 100 88 38 53 64 50 41 53 72 88 95 99 98 99 99 99 97 94 84 97 90 68 72 83 79 72 59 53 50 45 52 46 44 51 51 55 64
88 73 74 82 73 65 58 99 94 51 49 62 52 50 49 69 86 90 98 100 99 99 98 99 95 74 68 70 58 60 64 68 62 57 54 45 45 51 50 55 60 62 56 63
93 73 72 81 74 60 55 100 98 62 51 66 51 46 52 56 67 90 82 91 83 91 89 78 70 66 58 56 55 53 52 53 53 53 57 57 58 57 57 56 58 63 68 72
88 54 67 81 78 54 55 100 100 80 60 62 50 46 48 55 58 77 74 67 74 72 79 73 70 67 66 66 67 65 61 62 63 64 63 58 61 63 60 60 64 70 73 68
87 45 65 86 70 49 60 100 99 99 74 82 81 47 50 50 54 56 59 62 68 66 74 82 77 81 79 80 79 72 76 76 76 66 65 61 51 70 73 74 77 77 70 53
62 41 80 86 55 48 74 99 98 100 100 95 90 83 62 50 54 56 61 63 71 76 77 83 86 86 84 81 74 63 57 62 67 66 69 67 51 67 78 77 78 69 50 33
59 60 91 72 52 65 100 100 99 100 100 100 99 99 92 82 77 72 66 62 60 65 77 83 85 82 87 85 55 49 56 60 70 74 75 67 46 68 83 83 78 39 36 36
72 88 87 60 52 98 100 100 100 100 100 99 96 94 90 87 98 100 99 96 92 85 81 79 76 72 72 58 57 60 66 75 83 70 64 78 54 55 64 52 38 39 38 36
100 99 72 95 78 92 100 100 100 99 99 99 94 96 86 82 92 99 99 99 98 97 99 100 100 93 70 85 83 83 84 80 72 75 58 59 71 51 50 41 42 39 37 27
98 92 72 73 84 89 99 98 90 93 93 87 96 94 92 93 96 100 99 96 96 92 91 92 95 49 42 50 64 85 96 94 83 83 66 85 72 53 48 44 40 38 32 27
94 88 88 94 98 100 99 90 75 51 46 40 65 82 89 94 100 100 98 89 83 87 86 87 68 30 26 31 43 74 99 90 95 82 71 63 57 52 43 40 39 35 31 30
100 99 98 89 83 78 65 62 56 45 36 29 32 61 93 85 79 74 78 74 78 67 68 57 32 25 19 32 60 99 100 100 96 72 65 70 50 43 41 42 39 37 34 28
96 97 99 75 76 61 62 53 47 40 39 33 33 49 77 69 65 63 67 66 69 66 59 29 23 21 19 34 52 90 100 100 90 82 83 71 48 45 43 41 38 34 28 22
96 94 86 77 83 70 61 62 53 47 41 39 44 64 60 65 58 54 50 60 56 41 24 22 24 22 24 29 35 65 100 100 97 96 89 54 46 44 41 36 32 30 28 22
96 95 96 77 77 80 66 59 58 52 46 50 67 76 65 62 52 48 46 42 33 32 30 27 24 24 28 34 45 82 100 100 91 60 50 47 41 35 31 29 30 30 25 16
96 94 95 93 88 79 70 66 58 55 52 61 65 65 56 58 54 52 40 34 32 29 28 26 28 36 43 47 53 67 62 53 50 45 37 34 32 32 31 31 31 27 21 12
Wind_Speed
26 24 23 20 16 16 15 18 15 12 10 15 27 33 30 19 17 14 18 13 15 22 25 22 20 20 13 26 29 21 19 10 8 12 9 16 26 19 19 9 6 5 1 2
26 25 24 20 16 16 15 16 12 11 13 17 25 26 25 27 23 14 25 19 17 24 24 17 19 19 22 18 36 20 20 9 12 7 8 15 20 23 22 17 12 14 10 4
27 26 24 21 16 17 16 15 9 12 17 17 18 22 25 17 14 20 13 14 17 23 25 23 16 16 24 17 25 24 21 8 17 15 12 19 23 28 29 25 23 17 19 12
27 26 24 21 17 18 19 18 17 16 16 17 15 16 19 14 15 20 18 18 20 24 25 22 18 19 25 21 33 24 17 7 15 16 14 12 23 32 32 35 34 23 25 27
29 26 25 21 18 20 23 20 20 16 18 15 17 18 17 21 21 17 23 16 24 24 24 23 24 28 29 32 38 38 22 8 11 11 15 16 19 22 27 32 33 35 26 26
28 27 25 22 19 21 24 21 19 19 14 11 16 16 13 6 18 13 17 13 22 25 24 25 8 24 19 16 42 42 24 14 7 5 9 9 13 28 30 30 33 34 34 31
26 28 25 23 20 20 21 18 17 20 18 13 15 5 5 7 14 12 18 14 25 21 18 22 11 14 20 15 33 40 28 17 12 4 6 3 11 14 21 30 29 33 34 32
25 28 25 24 20 20 21 19 17 17 15 11 4 8 3 3 15 13 19 21 28 19 14 23 20 17 24 23 24 27 31 23 8 6 13 9 11 12 17 22 26 26 25 30
22 27 25 24 21 19 20 20 18 17 15 8 8 9 6 5 11 25 23 25 28 24 27 23 10 8 11 11 20 22 28 25 14 10 2 5 5 11 11 11 17 16 21 27
23 28 25 25 21 19 19 21 18 17 17 10 4 7 6 7 13 20 25 25 21 35 23 20 15 5 14 13 15 24 20 15 17 16 7 9 14 8 7 9 6 9 14 18
21 28 26 25 21 20 19 21 19 17 18 10 10 8 9 14 13 13 25 29 29 30 22 10 10 8 12 10 15 28 25 16 17 18 9 13 14 13 14 11 9 7 9 13
25 26 25 24 22 20 20 21 20 18 18 12 11 8 10 12 12 12 16 31 29 21 18 11 9 8 16 14 14 20 23 26 16 15 14 16 11 17 18 16 10 7 9 12
26 28 26 25 23 21 21 22 21 19 19 15 11 13 11 14 14 10 8 19 13 24 21 9 12 5 10 16 13 22 23 27 21 19 20 13 12 12 12 12 13 9 11 12
28 27 26 26 23 21 22 23 20 20 17 17 16 14 15 14 14 14 11 14 7 14 14 15 9 10 11 14 9 17 18 19 23 20 13 11 10 11 12 12 11 11 11 12
28 29 27 26 23 21 23 25 19 22 20 10 17 17 17 16 17 16 14 13 17 11 18 16 15 14 9 9 11 14 15 13 14 11 10 12 13 14 16 16 14 14 14 14
29 29 27 26 22 22 23 27 26 22 22 14 8 20 20 19 18 18 17 16 16 20 16 14 17 13 12 7 12 16 13 13 14 12 12 10 12 16 18 18 17 17 15 14
29 28 28 25 23 24 27 23 27 28 28 24 16 10 17 22 22 20 19 19 18 17 19 20 19 18 17 21 23 16 14 14 15 16 15 13 14 16 19 20 18 15 12 10
32 31 28 25 23 24 28 22 22 28 22 21 8 10 20 21 24 23 19 20 20 20 21 21 22 23 22 22 26 23 22 21 20 17 15 13 12 17 19 19 16 12 10 8
33 31 28 26 26 28 29 22 19 22 26 14 15 14 13 16 21 21 20 20 22 21 23 24 22 29 22 20 22 21 18 15 11 11 14 17 15 15 16 14 11 9 8 8
34 33 32 29 28 29 28 20 24 21 24 29 16 19 19 17 23 23 22 19 18 9 16 13 25 37 33 32 29 22 17 14 13 9 11 16 20 15 13 11 10 8 8 9
38 40 37 31 34 32 26 15 21 18 16 24 32 23 21 21 20 20 16 9 9 7 11 15 11 32 27 25 32 36 29 21 19 11 9 14 14 12 11 10 8 7 9 13
44 44 37 30 26 14 13 14 14 13 20 15 29 35 27 19 21 14 15 9 10 6 9 9 8 16 13 15 19 25 23 24 17 11 13 15 11 12 10 7 8 10 14 17
43 36 28 23 20 16 14 20 18 19 17 26 20 29 32 23 22 11 11 10 9 7 9 7 10 8 8 11 16 21 25 20 17 19 20 9 11 9 7 9 12 15 18 21
35 27 28 17 13 18 19 27 24 25 18 18 22 29 29 23 23 9 8 10 7 7 8 7 7 10 9 13 17 20 19 21 22 22 15 10 10 8 9 13 16 20 21 20
22 21 22 26 22 25 30 18 26 29 24 20 26 31 20 24 10 10 9 10 8 10 6 5 7 11 12 14 15 21 22 22 21 17 13 11 9 11 14 17 20 21 22 22
14 13 16 31 27 17 23 27 21 28 28 27 30 23 11 12 9 11 9 8 8 8 9 8 10 14 14 15 19 23 23 19 17 14 11 10 12 15 17 19 21 22 22 22
12 14 15 18 27 21 18 25 29 29 30 37 23 15 12 9 10 12 12 10 10 10 9 9 12 15 18 21 25 26 22 17 13 10 10 11 13 16 19 21 22 23 23 24
Wind_Direction
231 227 236 241 245 238 236 257 264 273 293 239 222 231 242 258 285 266 226 193 203 191 188 187 198 206 212 195 182 184 161 192 160 177 168 201 210 200 197 199 195 225 356 150
228 224 232 236 237 231 230 252 260 265 265 235 241 251 254 263 275 234 184 190 199 198 184 191 193 199 199 191 188 183 172 183 145 153 208 200 208 208 212 218 218 211 215 192
230 222 228 232 230 223 221 233 228 243 242 255 249 255 268 259 201 196 201 197 190 191 193 200 207 202 202 210 198 174 184 210 207 198 204 202 203 210 217 211 221 219 223 221
228 219 226 227 226 216 216 230 229 238 250 262 281 272 264 217 201 189 205 182 198 182 182 191 191 186 196 198 176 178 188 223 212 216 214 210 223 224 224 215 222 227 245 242
229 213 220 226 223 217 216 230 226 239 258 282 285 275 252 238 207 206 210 200 193 191 194 189 196 192 207 195 187 197 189 211 215 231 237 233 232 239 234 233 229 234 239 250
228 215 218 222 219 227 219 227 228 235 248 266 284 289 221 244 202 219 198 193 192 191 196 201 174 207 194 214 191 193 198 212 213 226 239 245 251 233 238 243 239 234 237 246
231 217 216 221 219 230 219 221 232 235 248 256 283 238 348 296 197 179 186 183 173 175 191 198 226 179 196 202 192 195 203 208 225 234 166 241 245 243 237 239 246 244 247 247
223 214 215 220 217 223 214 214 229 229 237 263 317 271 253 232 180 191 181 177 173 183 172 170 168 157 177 182 184 197 209 200 186 191 211 272 272 258 234 226 240 238 240 246
226 217 215 220 216 217 210 210 224 222 227 243 244 269 238 258 174 167 175 185 192 179 161 164 168 174 168 178 187 189 199 199 187 195 236 234 263 242 244 230 249 246 243 241
207 218 213 218 213 212 206 208 215 216 218 212 228 216 230 263 190 184 179 188 188 175 169 174 163 153 167 172 188 192 195 212 212 225 232 274 246 236 196 187 254 243 232 227
199 217 211 216 209 209 204 205 209 211 213 210 221 216 216 225 232 222 185 168 186 178 169 178 149 168 173 170 185 198 193 191 212 223 219 257 243 227 206 232 252 255 228 209
205 215 210 215 207 206 204 201 205 205 206 207 216 199 200 209 226 243 190 192 190 181 188 192 174 173 183 188 183 188 204 216 204 205 218 238 248 229 229 240 253 240 215 206
202 205 207 213 205 203 205 196 206 202 205 207 215 207 195 201 206 212 204 195 201 204 198 179 177 186 184 191 199 200 207 210 214 220 230 231 231 226 228 233 241 228 204 203
203 203 203 209 203 199 202 190 207 199 203 210 208 202 196 196 207 205 204 209 217 203 195 203 207 201 209 212 212 208 209 208 215 221 230 228 233 231 232 230 222 215 215 227
207 200 199 206 199 194 195 189 202 199 194 214 212 203 206 202 202 204 205 205 209 201 215 222 225 230 239 230 225 222 220 219 212 230 250 262 254 242 231 225 225 231 242 251
201 195 196 202 195 189 190 193 192 205 203 207 198 211 205 206 205 205 205 208 210 216 221 223 229 233 225 235 236 237 229 233 253 251 267 277 246 232 226 227 232 239 247 257
200 196 194 198 191 189 179 191 202 196 203 209 216 207 210 209 209 209 209 210 213 218 226 230 237 239 240 245 249 254 252 250 253 264 273 273 252 234 225 225 230 239 245 253
192 191 192 192 186 181 188 197 197 198 201 196 199 185 199 209 212 212 213 218 223 227 231 235 237 243 244 253 257 256 258 259 261 260 262 248 231 220 215 217 233 225 242 254
188 187 187 186 186 182 190 194 194 198 204 211 233 224 212 214 210 210 214 225 232 240 248 247 250 252 242 256 260 268 263 259 250 248 253 236 212 207 208 200 218 231 245 271
183 183 184 180 188 190 188 192 191 207 199 209 214 210 210 201 203 206 209 218 218 236 228 230 239 250 256 249 255 245 239 243 222 272 266 228 204 194 197 214 220 240 265 289
184 186 188 190 187 183 187 191 193 199 207 223 224 221 221 215 207 195 189 197 198 221 225 212 242 257 264 254 248 244 245 245 225 237 190 174 186 197 209 211 234 262 286 301
190 191 185 169 169 174 189 197 197 200 205 214 214 218 214 209 194 182 198 188 204 222 207 206 244 265 254 235 221 218 219 210 229 209 185 177 202 195 200 232 263 283 291 302
180 173 167 169 182 193 197 190 188 194 197 206 207 196 204 201 195 186 187 198 205 199 206 229 237 234 216 202 194 195 197 198 194 188 181 202 188 196 231 263 280 293 301 308
171 162 171 184 194 212 212 205 204 203 196 206 200 192 183 186 188 179 195 196 196 213 227 226 219 218 209 191 187 192 193 186 184 185 195 198 199 235 271 288 296 301 305 308
168 172 190 197 202 208 208 201 206 205 201 203 189 188 186 180 176 193 194 187 205 213 219 191 185 199 193 186 190 180 181 182 187 197 197 201 234 264 280 292 301 305 306 307
187 189 199 207 206 195 199 202 202 199 196 188 183 184 183 184 198 193 192 189 206 185 163 162 168 181 181 171 170 167 176 188 180 181 202 236 265 285 298 304 303 302 301 301
187 200 199 197 202 194 192 200 201 195 196 182 181 183 186 188 204 202 192 197 189 173 169 172 168 171 166 159 155 154 158 167 183 211 245 275 295 305 302 299 299 298 298 298